MDT,Max TemperatureF,Mean TemperatureF,Min TemperatureF,Max Dew PointF,MeanDew PointF,Min DewpointF,Max Humidity, Mean Humidity, Min Humidity, Max Sea Level PressureIn, Mean Sea Level PressureIn, Min Sea Level PressureIn, Max VisibilityMiles, Mean VisibilityMiles, Min VisibilityMiles, Max Wind SpeedMPH, Mean Wind SpeedMPH, Max Gust SpeedMPH,PrecipitationIn, CloudCover, Events, WindDirDegrees
2012-4-1,58,44,29,16,9,1,53,32,10,29.62,29.44,29.26,10,10,10,28,9,36,0.00,0,,183
2012-4-2,38,30,21,27,22,15,92,71,49,29.89,29.67,29.35,10,7,2,23,7,40,0.01,5,Snow,265
2012-4-3,41,32,22,25,20,15,92,66,40,30.06,29.95,29.78,10,7,0,18,5,26,0.02,7,Snow,233
2012-4-4,51,37,23,22,17,9,88,54,19,29.90,29.79,29.68,10,10,10,21,7,30,0.00,1,,24
2012-4-5,52,36,20,17,11,1,74,44,13,30.00,29.74,29.64,10,10,10,24,7,30,0.00,2,,199
2012-4-6,49,35,20,18,1,-18,47,27,6,29.94,29.65,29.49,10,10,10,37,16,53,0.00,0,,223
2012-4-7,48,34,20,8,-7,-25,46,27,8,30.26,30.14,29.95,10,10,10,16,8,22,0.00,0,,16
2012-4-8,53,35,17,9,-2,-13,62,35,7,30.26,30.18,30.11,10,10,10,23,7,29,0.00,0,,2
2012-4-9,55,38,21,11,5,-2,50,30,10,30.11,30.05,29.98,10,10,10,21,5,28,0.00,1,,4
2012-4-10,59,40,20,21,12,5,74,43,12,30.08,29.97,29.85,10,10,10,17,5,25,0.00,0,,151
2012-4-11,58,43,27,33,26,19,89,57,24,30.12,29.79,29.57,10,10,9,31,9,45,0.01,3,Rain,190
2012-4-12,42,32,22,30,19,8,92,59,25,29.90,29.68,29.57,10,9,2,23,8,31,T,5,Snow,27
2012-4-13,39,30,20,20,12,-1,75,48,21,29.79,29.69,29.60,10,10,10,23,9,39,0.00,4,,182
2012-4-14,38,30,21,23,18,5,88,57,25,29.62,29.52,29.34,10,6,0,26,8,31,0.09,7,Fog-Snow,251
2012-4-15,32,24,16,23,19,13,92,80,68,30.06,29.79,29.40,10,3,0,25,11,33,0.17,8,Fog-Snow,1
2012-4-16,34,25,15,19,16,12,91,69,47,30.24,30.12,29.98,10,5,0,21,7,26,0.14,7,Fog-Snow,351
2012-4-17,47,32,16,22,17,12,84,59,34,30.23,30.12,30.04,10,10,10,20,6,25,0.00,1,,23
2012-4-18,49,35,21,29,19,11,84,54,23,30.15,29.93,29.77,10,10,10,21,7,32,T,3,,11
2012-4-19,42,35,28,31,27,22,100,72,43,30.24,30.05,29.77,10,5,1,23,8,31,0.11,8,Snow,29
2012-4-20,49,36,23,27,25,20,92,67,42,30.32,30.12,30.00,10,8,2,22,10,28,0.01,5,Snow,18
2012-4-21,57,43,29,25,20,15,69,45,20,30.12,30.05,30.00,10,10,10,23,7,32,0.00,0,,7
2012-4-22,60,43,25,25,21,15,75,47,19,30.15,30.10,30.06,10,10,10,23,5,41,0.00,1,,9
2012-4-23,63,44,25,25,19,10,84,49,13,30.15,30.06,29.95,10,10,10,15,5,21,0.00,0,,39
2012-4-24,63,45,27,25,18,12,63,39,14,30.32,29.91,29.78,10,10,10,30,6,45,T,2,Rain,356
2012-4-25,62,50,37,27,16,11,53,35,17,29.87,29.82,29.76,10,10,10,20,8,28,0.00,3,,21
2012-4-26,57,46,34,38,31,20,92,59,26,29.96,29.73,29.47,10,9,3,30,8,38,0.17,6,Rain,193
2012-4-27,43,35,27,36,26,10,96,63,29,29.94,29.73,29.48,10,8,2,31,15,39,0.04,5,Rain-Snow,340
2012-4-28,45,34,22,18,11,3,68,43,18,29.91,29.82,29.73,10,10,10,24,10,30,0.00,2,,353
2012-4-29,49,34,18,15,10,1,73,44,15,30.07,29.86,29.78,10,10,10,22,8,31,0.00,0,,334
2012-4-30,53,37,21,13,8,2,55,34,13,29.95,29.85,29.74,10,10,10,24,8,32,0.00,0,,350